Location: Holyhead Bay
(53.3667°N, 4.6667°W)
Time: 22:40:28
(UTC+00:00)

ADEOS Rocket - Pass Details

Date: 18 April 2021
Orbit: 859 x 1306 km, 98.7° (Epoch: 14 May)

Event Time Altitude Azimuth Distance (km) Brightness Sun altitude
Exits shadow 03:04:16 - 172° (S) 2,985 5.2 -16.7°
Reaches altitude 10° 03:04:44 10° 172° (S) 2,811 5.0 -16.6°
Maximum altitude 03:11:07 72° 257° (WSW) 1,165 3.2 -16.0°
Drops below altitude 10° 03:18:18 10° 342° (NNW) 3,143 6.0 -15.2°
Sets 03:21:05 0° 345° (NNW) 4,165 6.7 -14.9°
